Flag for United Kingdom Weather past 2 weeks in Newport, Wales, United Kingdom

Now
61 °F

Scattered showers. Scattered clouds.


Feels Like: 61 °F
Forecast: 54 / 64 °F
Wind: 24 mph from West

Location: Bristol / Lulsgate

Current Time: Jul 7, 2015 at 6:58:14 PM

Latest Report: Jul 7, 2015 at 6:20 PM


Visibility: N/A

Pressure: 29.80 "Hg

Humidity: 68%

Dew point: 50 °F

Location of NewportLocation

Historic Weather in Newport — Graph

°F

Newport temperature yesterday

Maximum temperature yesterday: 64 °F (at 5:20 PM)
Minimum temperature yesterday: 50 °F (at 4:20 AM)
Average temperature yesterday: 58 °F

Past Weeks' High & Low Weather Summary

 TemperatureHumidityPressure
High84 °F (Jul 1, 3:20 PM)100% (Jun 24, 3:20 AM)30.30 "Hg (Jun 24, 3:20 AM)
Low48 °F (Jun 23, 2:20 AM)39% (Jun 30, 4:50 PM)29.77 "Hg (Jul 7, 8:20 AM)
Average61 °F77%30.06 "Hg
* Reported Jun 22 5:20 PM — Jul 7 5:20 PM, Newport, Weather by CustomWeather, © 2015

Note: Actual official high and low records may vary slightly from our data, if they occured in-between our weather recording intervals... More about our weather records

Advertising

Newport weather history for previous 24 hours

 ConditionsComfort  
Time TempWeatherWind HumidityBarometerVisibility
5:20 PM
Tue, Jul 7
61 °FScattered clouds.18 mph68%29.80 "HgN/A
4:50 PM61 °FScattered clouds.24 mph63%29.80 "HgN/A
4:20 PM63 °FScattered clouds.24 mph64%29.80 "HgN/A
3:50 PM63 °FScattered clouds.29 mph64%29.80 "HgN/A
3:20 PM63 °FScattered clouds.25 mph68%29.80 "HgN/A
2:50 PM63 °FScattered clouds.26 mph64%29.80 "HgN/A
2:20 PM64 °FScattered clouds.24 mph64%29.80 "HgN/A
1:50 PM64 °FScattered clouds.21 mph68%29.80 "HgN/A
1:20 PM64 °FScattered clouds.21 mph68%29.80 "HgN/A
12:50 PM63 °FScattered clouds.23 mph73%29.80 "HgN/A
12:20 PM63 °FScattered clouds.23 mph77%29.80 "HgN/A
11:50 AM61 °FScattered clouds.21 mph83%29.80 "HgN/A
11:20 AM59 °FScattered showers. Partly sunny.21 mph88%29.80 "HgN/A
10:50 AM57 °FScattered showers. Partly sunny.16 mph94%29.80 "HgN/A
10:20 AM59 °FScattered showers. Partly sunny.17 mph88%29.77 "HgN/A
9:50 AM61 °FScattered showers. Partly sunny.13 mph88%29.77 "HgN/A
9:20 AM59 °FBroken clouds.10 mph100%29.77 "HgN/A
8:50 AM59 °FMixture of precip. Broken clouds.12 mph94%29.77 "HgN/A
8:20 AM61 °FScattered showers. Broken clouds.12 mph88%29.77 "HgN/A
7:50 AM61 °FBroken clouds.10 mph94%29.80 "HgN/A
7:20 AM61 °FBroken clouds.9 mph94%29.80 "HgN/A
6:50 AM59 °FBroken clouds.7 mph100%29.80 "HgN/A
6:20 AM59 °FLow clouds.9 mph100%29.80 "Hg4 mi
5:50 AM59 °FFog.9 mph100%29.80 "Hg1 mi
5:20 AM59 °FDrizzle. Fog.9 mph100%29.80 "Hg1 mi
4:50 AM59 °FLight rain. Low clouds.10 mph100%29.80 "Hg2 mi
4:20 AM59 °FRain. Low clouds.13 mph100%29.83 "Hg2 mi
3:50 AM59 °FLow clouds.12 mph100%29.83 "Hg4 mi
3:20 AM59 °FRain. Passing clouds.14 mph94%29.83 "Hg2 mi
2:50 AM59 °FRain. Passing clouds.13 mph94%29.86 "Hg2 mi
2:20 AM59 °FPartly cloudy.16 mph88%29.86 "HgN/A
1:50 AM59 °FPassing clouds.15 mph82%29.86 "HgN/A
1:20 AM59 °FPassing clouds.13 mph82%29.86 "HgN/A
12:50 AM59 °FPassing clouds.14 mph82%29.89 "HgN/A
12:20 AM59 °FPassing clouds.10 mph82%29.89 "HgN/A
11:50 PM
Mon, Jul 6
59 °FPassing clouds.12 mph82%29.92 "HgN/A
11:20 PM59 °FPassing clouds.9 mph82%29.95 "HgN/A
10:50 PM59 °FPassing clouds.10 mph82%29.92 "HgN/A
10:20 PM59 °FScattered clouds.7 mph82%29.95 "HgN/A
9:50 PM59 °FPassing clouds.10 mph82%29.92 "HgN/A
9:20 PM61 °FScattered showers. Passing clouds.12 mph77%29.95 "HgN/A
8:50 PM61 °FSprinkles. Passing clouds.17 mph77%29.95 "HgN/A
8:20 PM61 °FPassing clouds.15 mph77%29.95 "HgN/A
7:50 PM63 °FPassing clouds.15 mph73%29.98 "HgN/A
7:20 PM63 °FScattered clouds.14 mph73%29.98 "HgN/A
6:50 PM63 °FPassing clouds.13 mph73%29.98 "HgN/A
6:20 PM64 °FScattered clouds.14 mph68%29.98 "HgN/A
Weather by CustomWeather, © 2015

See weather overviewHow to use our weather pages